VK2HAR Weather Reports


Display with metric or nautical units.
time (UTC)temp
F
wind
direction
speed
MPH
gust
MPH
rain 1hr
in
rain 24hr
in
rain mn
in
humidity
%
barometer
mb
20260509075403 61 221 2.0 10.0 0.00 0.00 0.00 75 1024.4
20260509074503 62 277 2.0 3.0 0.00 0.00 0.00 72 1024.0
20260509073603 63 277 1.0 2.0 0.00 0.00 0.00 69 1023.9
20260509072703 64 277 1.0 3.0 0.00 0.00 0.00 67 1023.9
20260509071803 66 277 0.0 2.0 0.00 0.00 0.00 64 1023.8
20260509070903 67 277 1.0 3.0 0.00 0.00 0.00 60 1023.7
20260509070003 69 0 0.0 0.0 0.00 0.00 0.00 55 1023.6
20260509065403 69 0 0.0 0.0 0.00 0.00 0.00 54 1023.6
20260509064503 70 0 0.0 0.0 0.00 0.00 0.00 53 1023.5
20260509063603 70 100 0.0 2.0 0.00 0.00 0.00 53 1023.4
20260509062703 70 100 1.0 2.0 0.00 0.00 0.00 50 1023.3
20260509061803 71 100 1.0 3.0 0.00 0.00 0.00 50 1023.2
20260509060903 71 100 0.0 2.0 0.00 0.00 0.00 50 1023.2
20260509060004 71 100 0.0 2.0 0.00 0.00 0.00 49 1023.1
20260509055403 70 100 1.0 6.0 0.00 0.00 0.00 50 1023.0
20260509054503 70 101 1.0 6.0 0.00 0.00 0.00 51 1023.0
20260509053817 70 102 0.0 1.0 0.00 0.00 0.00 51 1023.0
20260509052703 70 102 0.0 2.0 0.00 0.00 0.00 50 1022.9
20260509052019 70 102 0.0 2.0 0.00 0.00 0.00 51 1022.8
20260509050903 70 100 2.0 4.0 0.00 0.00 0.00 50 1022.7
20260509050003 70 91 1.0 4.0 0.00 0.00 0.00 50 1022.9
20260509045403 70 91 2.0 4.0 0.00 0.00 0.00 49 1022.9
20260509044503 70 93 3.0 7.0 0.00 0.00 0.00 50 1022.9
20260509043603 71 96 2.0 6.0 0.00 0.00 0.00 49 1022.8
20260509042703 70 86 2.0 7.0 0.00 0.00 0.00 49 1023.0
20260509041803 70 95 3.0 7.0 0.00 0.00 0.00 50 1023.0
20260509040903 69 92 4.0 7.0 0.00 0.00 0.00 50 1022.9
20260509040003 69 92 2.0 6.0 0.00 0.00 0.00 51 1022.9
20260509035617 69 99 2.0 6.0 0.00 0.00 0.00 51 1022.9
20260509034717 69 121 2.0 7.0 0.00 0.00 0.00 51 1023.0
20260509033603 68 170 1.0 4.0 0.00 0.00 0.00 52 1023.0
20260509032703 68 169 1.0 4.0 0.00 0.00 0.00 53 1023.1
20260509031803 69 170 2.0 5.0 0.00 0.00 0.00 51 1023.1
20260509030903 69 172 2.0 4.0 0.00 0.00 0.00 52 1023.2
20260509030003 69 180 2.0 4.0 0.00 0.00 0.00 52 1023.3
20260509025403 68 189 1.0 3.0 0.00 0.00 0.00 52 1023.4
20260509024503 68 181 2.0 6.0 0.00 0.00 0.00 52 1023.6
20260509023603 68 111 2.0 6.0 0.00 0.00 0.00 52 1023.7
20260509022703 68 161 2.0 6.0 0.00 0.00 0.00 51 1023.8
20260509021803 68 163 2.0 6.0 0.00 0.00 0.00 52 1024.0
20260509020903 68 168 3.0 6.0 0.00 0.00 0.00 53 1024.1
20260509020003 68 117 3.0 7.0 0.00 0.00 0.00 53 1024.3
20260509015403 68 106 3.0 8.0 0.00 0.00 0.00 53 1024.5
20260509014716 68 96 3.0 8.0 0.00 0.00 0.00 52 1024.6
20260509013819 68 110 3.0 8.0 0.00 0.00 0.00 55 1024.7
20260509012703 66 159 3.0 6.0 0.00 0.00 0.00 58 1024.8
20260509011803 65 165 2.0 6.0 0.00 0.00 0.00 58 1024.9
20260509010903 65 156 2.0 6.0 0.00 0.00 0.00 56 1025.0
20260509010003 65 148 2.0 6.0 0.00 0.00 0.00 59 1025.0
20260509005403 65 130 2.0 6.0 0.00 0.00 0.00 56 1025.1
20260509004719 64 95 1.0 3.0 0.00 0.00 0.00 58 1025.1
20260509003603 63 75 1.0 2.0 0.00 0.00 0.00 65 1025.2
20260509002704 62 75 1.0 3.0 0.00 0.00 0.00 65 1025.2
20260509001803 62 76 1.0 4.0 0.00 0.00 0.00 66 1025.3
20260509000903 62 76 1.0 3.0 0.00 0.00 0.00 67 1025.4
20260509000003 62 56 2.0 5.0 0.00 0.00 0.00 68 1025.5
20260508235403 61 322 1.0 2.0 0.00 0.00 0.00 70 1025.6
20260508234503 59 317 0.0 3.0 0.00 0.00 0.00 72 1025.5
20260508233603 58 303 1.0 3.0 0.00 0.00 0.00 75 1025.4
20260508232703 56 301 0.0 1.0 0.00 0.00 0.00 76 1025.4
20260508231803 55 301 0.0 1.0 0.00 0.00 0.00 79 1025.5
20260508230903 53 301 0.0 2.0 0.00 0.00 0.00 83 1025.5
20260508230003 52 301 0.0 2.0 0.00 0.00 0.00 83 1025.6
20260508225403 52 301 0.0 2.0 0.00 0.00 0.00 84 1025.7
20260508224503 52 301 1.0 3.0 0.00 0.00 0.00 84 1025.6
20260508223603 52 291 1.0 3.0 0.00 0.00 0.00 86 1025.6
20260508222917 50 0 0.0 0.0 0.00 0.00 0.00 87 1025.4
20260508221803 49 248 0.0 2.0 0.00 0.00 0.00 90 1025.2
20260508220903 47 248 0.0 1.0 0.00 0.00 0.00 90 1025.1
20260508220003 46 0 0.0 0.0 0.00 0.00 0.00 91 1025.1
20260508215403 46 0 0.0 0.0 0.00 0.00 0.00 92 1025.0
20260508214503 46 0 0.0 0.0 0.00 0.00 0.00 93 1024.8
20260508213818 45 0 0.0 0.0 0.00 0.00 0.00 93 1024.8
20260508212703 44 0 0.0 0.0 0.00 0.00 0.00 93 1024.7
20260508211803 44 0 0.0 0.0 0.00 0.00 0.00 93 1024.5
20260508210903 44 0 0.0 0.0 0.00 0.00 0.00 93 1024.5
20260508210003 44 236 0.0 1.0 0.00 0.00 0.00 94 1024.3
20260508205403 43 236 0.0 3.0 0.00 0.00 0.00 93 1024.2
20260508204503 43 236 1.0 3.0 0.00 0.00 0.00 93 1024.0
20260508203603 43 236 0.0 1.0 0.00 0.00 0.00 92 1024.0
20260508202703 43 236 0.0 1.0 0.00 0.00 0.00 92 1023.8
20260508202016 43 0 0.0 0.0 0.00 0.00 0.00 92 1023.9
20260508200903 43 236 0.0 2.0 0.00 0.00 0.00 92 1023.7
20260508200003 44 236 0.0 2.0 0.00 0.00 0.00 92 1023.7
20260508195618 44 0 0.0 0.0 0.00 0.00 0.00 92 1023.7
20260508194503 44 236 0.0 1.0 0.00 0.00 0.00 93 1023.6
20260508193603 43 236 0.0 2.0 0.00 0.00 0.00 93 1023.3
20260508192703 43 236 0.0 2.0 0.00 0.00 0.00 91 1023.2
20260508191803 44 0 0.0 0.0 0.00 0.00 0.00 91 1023.1
20260508190903 44 236 0.0 1.0 0.00 0.00 0.00 92 1023.0
20260508190003 44 236 0.0 1.0 0.00 0.00 0.00 92 1023.0
20260508185403 44 0 0.0 0.0 0.00 0.00 0.00 92 1022.9
20260508184504 44 0 0.0 0.0 0.00 0.00 0.00 92 1022.9
20260508183603 44 0 0.0 0.0 0.00 0.00 0.00 91 1022.8
20260508182703 44 0 0.0 0.0 0.00 0.00 0.00 91 1022.7
20260508181803 44 0 0.0 0.0 0.00 0.00 0.00 91 1022.8
20260508180903 44 236 0.0 2.0 0.00 0.00 0.00 90 1022.6
20260508180003 44 0 0.0 0.0 0.00 0.00 0.00 90 1022.6
20260508175617 44 0 0.0 0.0 0.00 0.00 0.00 90 1022.6
20260508174503 45 236 0.0 1.0 0.00 0.00 0.00 91 1022.5
20260508173603 44 236 1.0 2.0 0.00 0.00 0.00 90 1022.5
20260508172703 45 236 0.0 2.0 0.00 0.00 0.00 90 1022.5
20260508171803 44 236 0.0 1.0 0.00 0.00 0.00 90 1022.4
20260508170903 45 236 0.0 1.0 0.00 0.00 0.00 90 1022.5
20260508170217 45 236 0.0 2.0 0.00 0.00 0.00 89 1022.5
20260508165403 45 236 0.0 1.0 0.00 0.00 0.00 89 1022.3
20260508164503 45 236 0.0 2.0 0.00 0.00 0.00 89 1022.4
20260508163603 45 236 0.0 2.0 0.00 0.00 0.00 88 1022.4
20260508162703 46 236 0.0 2.0 0.00 0.00 0.00 89 1022.4
20260508162018 46 236 0.0 2.0 0.00 0.00 0.00 90 1022.4
20260508160903 46 236 0.0 1.0 0.00 0.00 0.00 89 1022.3
20260508160003 46 236 1.0 2.0 0.00 0.00 0.00 88 1022.2
20260508155403 46 236 1.0 2.0 0.00 0.00 0.00 88 1022.2
20260508154503 46 236 0.0 2.0 0.00 0.00 0.00 87 1022.2
20260508153603 47 236 0.0 3.0 0.00 0.00 0.00 87 1022.1
20260508152919 47 236 1.0 2.0 0.00 0.00 0.00 87 1022.2
20260508151803 47 235 0.0 1.0 0.00 0.00 0.00 88 1022.3
20260508150903 47 236 1.0 3.0 0.00 0.00 0.00 88 1022.3
20260508150003 46 236 2.0 4.0 0.00 0.00 0.00 88 1022.3
20260508145403 46 236 2.0 3.0 0.00 0.00 0.00 87 1022.3
20260508144503 47 236 1.0 3.0 0.00 0.00 0.00 87 1022.3
20260508143604 46 236 0.0 3.0 0.00 0.00 0.00 87 1022.4
20260508142918 47 0 0.0 0.0 0.00 0.00 0.00 86 1022.4
20260508141803 47 0 0.0 0.0 0.00 0.00 0.00 85 1022.2
20260508140903 48 0 0.0 0.0 0.00 0.00 0.00 85 1022.4
20260508140004 48 0 0.0 0.0 0.00 0.00 0.00 85 1022.2
20260508135403 48 0 0.0 0.0 0.00 0.00 0.00 84 1022.1
20260508134719 48 0 0.0 0.0 0.00 0.00 0.00 84 1022.1
20260508133603 48 0 0.0 0.0 0.00 0.00 0.00 84 1022.1
20260508132703 48 0 0.0 0.0 0.00 0.00 0.00 84 1022.1
20260508132017 48 236 1.0 2.0 0.00 0.00 0.00 85 1022.1
20260508130903 48 236 1.0 3.0 0.00 0.00 0.00 84 1022.1
20260508130003 48 236 1.0 3.0 0.00 0.00 0.00 84 1022.1
20260508125403 48 232 2.0 4.0 0.00 0.00 0.00 84 1022.3
20260508124503 49 216 1.0 4.0 0.00 0.00 0.00 83 1022.3
20260508123603 49 214 0.0 2.0 0.00 0.00 0.00 82 1022.2
20260508122703 50 0 0.0 0.0 0.00 0.00 0.00 81 1022.4
20260508122017 50 214 0.0 3.0 0.00 0.00 0.00 81 1022.4
20260508120903 50 0 0.0 0.0 0.00 0.00 0.00 81 1022.3
20260508120003 50 0 0.0 0.0 0.00 0.00 0.00 82 1022.2
20260508115403 50 214 1.0 3.0 0.00 0.00 0.00 81 1022.1
20260508114503 50 214 1.0 3.0 0.00 0.00 0.00 81 1021.9
20260508113603 50 214 0.0 3.0 0.00 0.00 0.00 79 1022.0
20260508112917 51 214 0.0 3.0 0.00 0.00 0.00 78 1021.9
20260508111803 52 0 0.0 0.0 0.00 0.00 0.00 77 1021.7
20260508110903 52 0 0.0 0.0 0.00 0.00 0.00 76 1021.7
20260508110003 53 0 0.0 0.0 0.00 0.00 0.00 74 1021.7
20260508105403 54 0 0.0 0.0 0.00 0.00 0.00 72 1021.5
20260508104503 56 214 0.0 2.0 0.00 0.00 0.00 68 1021.4
20260508103603 57 213 1.0 3.0 0.00 0.00 0.00 66 1021.5
20260508102917 57 213 2.0 3.0 0.00 0.00 0.00 67 1021.3
20260508101803 55 213 0.0 3.0 0.00 0.00 0.00 69 1021.3
20260508100903 57 213 1.0 3.0 0.00 0.00 0.00 66 1021.2
20260508100003 58 214 1.0 4.0 0.00 0.00 0.00 64 1021.0
20260508095403 58 214 0.0 3.0 0.00 0.00 0.00 63 1021.1
20260508094718 59 214 0.0 3.0 0.00 0.00 0.00 63 1021.0
20260508093603 59 215 1.0 3.0 0.00 0.00 0.00 61 1020.8
20260508092703 60 214 2.0 5.0 0.00 0.00 0.00 61 1020.6
20260508091804 60 224 2.0 9.0 0.00 0.00 0.00 61 1020.7
20260508090903 60 227 2.0 4.0 0.00 0.00 0.00 60 1020.6
20260508090003 60 228 2.0 4.0 0.00 0.00 0.00 60 1020.5
20260508085403 60 240 2.0 4.0 0.00 0.00 0.00 60 1020.4
20260508084503 60 232 2.0 4.0 0.00 0.00 0.00 59 1020.2
20260508083603 61 229 3.0 6.0 0.00 0.00 0.00 58 1020.0
20260508082703 61 224 4.0 8.0 0.00 0.00 0.00 58 1019.9
20260508081803 60 249 3.0 5.0 0.00 0.00 0.00 58 1020.0
20260508080903 60 254 1.0 3.0 0.00 0.00 0.00 59 1019.8
20260508080003 61 254 0.0 3.0 0.00 0.00 0.00 58 1019.7